{"data":{"norad_id":44909,"intl_designator":"2019-096E","name":"RS-44 & BREEZE-KM R/B","alt_names":[],"object_type":"PAYLOAD","status":"ACTIVE","operator":null,"country":"CIS","launch_date":"2019-12-26","launch_site_code":"PLMSC","launch_vehicle":null,"mission":null,"orbit_class":"UNKNOWN","rcs_meters":null,"size_class":null,"mass_kg":null,"dimensions":null,"purposes":["comms"],"wikipedia_slug":null,"has_3d_model":false,"image_url":null,"decayed_at":null,"tle_current":{"epoch":"2026-09-20T01:42:34.983072Z","epoch_age_seconds":51268,"freshness":"FRESH","line1":"1 44909U 19096E   26263.07123823  .00000019  00000+0  40325-4 0  9993","line2":"2 44909  82.5167 276.6553 0216349 282.6062  75.0925 12.79749405314488","mean_motion":12.79749405,"eccentricity":0.0216349,"inclination_deg":82.5167,"raan_deg":276.6553,"arg_perigee_deg":282.6062,"mean_anomaly_deg":75.0925,"bstar":4.0325e-5,"rev_number":31448,"period_min":112.522029264,"perigee_km":1175.4430497496,"apogee_km":1509.5125070888,"semimajor_km":7720.6147784192,"source":"CELESTRAK","updated_at":"2026-09-20T09:00:45.236229Z"}}}